TimeEST,TemperatureF,Dew PointF,Humidity,Sea Level PressureIn,VisibilityMPH,Wind Direction,Wind SpeedMPH,Gust SpeedMPH,PrecipitationIn,Events,Conditions,WindDirDegrees,DateUTC
12:15 AM,43.5,41.4,92,29.89,10.0,Calm,Calm,-,N/A,,Clear,0,2013-12-03 05:15:00
12:35 AM,42.8,41.0,93,29.89,10.0,Calm,Calm,-,N/A,,Clear,0,2013-12-03 05:35:00
12:55 AM,42.8,41.0,93,29.89,7.0,Calm,Calm,-,N/A,,Clear,0,2013-12-03 05:55:00
1:15 AM,41.9,40.1,93,29.90,7.0,Calm,Calm,-,N/A,,Clear,0,2013-12-03 06:15:00
1:35 AM,41.5,40.1,95,29.91,7.0,Calm,Calm,-,N/A,,Clear,0,2013-12-03 06:35:00
1:55 AM,41.7,40.1,94,29.90,7.0,Calm,Calm,-,N/A,,Clear,0,2013-12-03 06:55:00
2:15 AM,42.4,40.1,91,29.90,10.0,Calm,Calm,-,N/A,,Clear,0,2013-12-03 07:15:00
2:35 AM,41.5,39.6,93,29.91,7.0,Calm,Calm,-,N/A,,Clear,0,2013-12-03 07:35:00
2:55 AM,42.1,40.1,93,29.90,10.0,Calm,Calm,-,N/A,,Clear,0,2013-12-03 07:55:00
3:15 AM,41.4,39.4,93,29.90,7.0,Calm,Calm,-,N/A,,Clear,0,2013-12-03 08:15:00
3:35 AM,40.6,39.2,95,29.90,7.0,Calm,Calm,-,N/A,,Clear,0,2013-12-03 08:35:00
3:55 AM,41.2,39.6,94,29.90,7.0,Calm,Calm,-,N/A,,Clear,0,2013-12-03 08:55:00
4:15 AM,41.4,39.4,93,29.90,7.0,Calm,Calm,-,N/A,,Clear,0,2013-12-03 09:15:00
4:35 AM,41.2,39.2,93,29.91,10.0,Calm,Calm,-,N/A,,Clear,0,2013-12-03 09:35:00
4:55 AM,41.9,39.4,91,29.91,10.0,Calm,Calm,-,N/A,,Clear,0,2013-12-03 09:55:00
5:15 AM,41.9,39.4,91,29.91,7.0,Calm,Calm,-,N/A,,Clear,0,2013-12-03 10:15:00
5:35 AM,41.5,39.2,91,29.91,7.0,Calm,Calm,-,N/A,,Clear,0,2013-12-03 10:35:00
5:55 AM,41.9,39.0,90,29.92,10.0,Calm,Calm,-,N/A,,Clear,0,2013-12-03 10:55:00
6:15 AM,40.8,38.7,92,29.93,10.0,Calm,Calm,-,N/A,,Clear,0,2013-12-03 11:15:00
6:35 AM,41.0,38.7,91,29.93,10.0,Calm,Calm,-,N/A,,Clear,0,2013-12-03 11:35:00
6:55 AM,41.7,39.2,91,29.95,10.0,NNE,3.5,-,N/A,,Clear,20,2013-12-03 11:55:00
7:15 AM,42.3,38.5,86,29.96,10.0,Calm,Calm,-,N/A,,Clear,0,2013-12-03 12:15:00
7:35 AM,41.5,38.8,90,29.97,10.0,Calm,Calm,-,N/A,,Clear,0,2013-12-03 12:35:00
7:55 AM,42.3,39.2,89,29.98,10.0,Calm,Calm,-,N/A,,Clear,0,2013-12-03 12:55:00
8:15 AM,44.2,40.6,87,29.98,10.0,Calm,Calm,-,N/A,,Scattered Clouds,0,2013-12-03 13:15:00
8:35 AM,47.5,41.4,79,29.98,10.0,Calm,Calm,-,N/A,,Scattered Clouds,0,2013-12-03 13:35:00
8:55 AM,49.8,41.9,74,29.99,10.0,Calm,Calm,-,N/A,,Clear,0,2013-12-03 13:55:00
9:15 AM,53.2,42.4,67,30.00,10.0,Calm,Calm,-,N/A,,Clear,0,2013-12-03 14:15:00
9:35 AM,56.1,41.7,58,30.00,10.0,Calm,Calm,-,N/A,,Clear,0,2013-12-03 14:35:00
9:55 AM,57.7,41.2,54,30.00,10.0,Calm,Calm,-,N/A,,Clear,0,2013-12-03 14:55:00
10:15 AM,58.5,42.4,55,30.00,10.0,ESE,5.8,-,N/A,,Clear,120,2013-12-03 15:15:00
10:35 AM,58.8,43.7,57,30.00,10.0,SE,4.6,-,N/A,,Scattered Clouds,140,2013-12-03 15:35:00
10:55 AM,60.4,45.7,58,30.01,10.0,Calm,Calm,-,N/A,,Mostly Cloudy,0,2013-12-03 15:55:00
11:15 AM,59.7,44.8,58,30.00,10.0,SSE,3.5,-,N/A,,Overcast,150,2013-12-03 16:15:00
11:35 AM,59.7,44.8,58,30.00,10.0,ESE,3.5,-,N/A,,Mostly Cloudy,120,2013-12-03 16:35:00
11:55 AM,59.7,44.2,57,29.99,10.0,ESE,4.6,-,N/A,,Scattered Clouds,120,2013-12-03 16:55:00
12:15 PM,59.4,46.4,62,29.99,10.0,SSE,3.5,-,N/A,,Mostly Cloudy,150,2013-12-03 17:15:00
12:35 PM,61.5,43.7,52,29.98,10.0,South,5.8,-,N/A,,Mostly Cloudy,170,2013-12-03 17:35:00
12:55 PM,61.3,42.3,50,29.98,10.0,SE,4.6,-,N/A,,Scattered Clouds,140,2013-12-03 17:55:00
1:15 PM,61.0,43.0,52,29.96,10.0,SSE,3.5,-,N/A,,Clear,150,2013-12-03 18:15:00
1:35 PM,61.0,42.3,50,29.96,10.0,South,5.8,-,N/A,,Clear,180,2013-12-03 18:35:00
1:55 PM,61.9,42.8,50,29.96,10.0,South,3.5,-,N/A,,Clear,170,2013-12-03 18:55:00
2:15 PM,61.3,43.3,52,29.97,10.0,South,4.6,-,N/A,,Clear,180,2013-12-03 19:15:00
2:35 PM,61.7,43.9,52,29.97,10.0,South,3.5,-,N/A,,Scattered Clouds,190,2013-12-03 19:35:00
2:55 PM,61.0,43.5,53,29.97,10.0,Calm,Calm,-,N/A,,Clear,0,2013-12-03 19:55:00
3:15 PM,60.4,43.2,53,29.97,10.0,Calm,Calm,-,N/A,,Clear,0,2013-12-03 20:15:00
3:35 PM,60.1,43.3,54,29.97,10.0,Calm,Calm,-,N/A,,Clear,0,2013-12-03 20:35:00
3:55 PM,59.2,43.3,56,29.97,10.0,Calm,Calm,-,N/A,,Clear,0,2013-12-03 20:55:00
4:15 PM,58.8,44.6,59,29.98,10.0,Calm,Calm,-,N/A,,Clear,0,2013-12-03 21:15:00
4:35 PM,57.4,45.9,65,29.98,10.0,Calm,Calm,-,N/A,,Clear,0,2013-12-03 21:35:00
4:55 PM,56.3,46.6,70,29.99,10.0,Calm,Calm,-,N/A,,Scattered Clouds,0,2013-12-03 21:55:00
5:15 PM,54.9,46.8,74,29.99,10.0,Calm,Calm,-,N/A,,Scattered Clouds,0,2013-12-03 22:15:00
5:35 PM,53.4,46.9,79,29.99,10.0,Calm,Calm,-,N/A,,Clear,0,2013-12-03 22:35:00
5:55 PM,53.2,46.8,79,29.99,10.0,Calm,Calm,-,N/A,,Mostly Cloudy,0,2013-12-03 22:55:00
6:15 PM,53.2,47.3,80,30.00,10.0,Calm,Calm,-,N/A,,Mostly Cloudy,0,2013-12-03 23:15:00
6:35 PM,53.8,48.2,81,30.00,10.0,Calm,Calm,-,N/A,,Overcast,0,2013-12-03 23:35:00
6:55 PM,54.1,48.4,81,30.01,10.0,Calm,Calm,-,N/A,,Overcast,0,2013-12-03 23:55:00
7:15 PM,54.7,48.4,79,30.01,10.0,Calm,Calm,-,N/A,,Overcast,0,2013-12-04 00:15:00
7:35 PM,54.5,48.7,81,30.01,10.0,Calm,Calm,-,N/A,,Overcast,0,2013-12-04 00:35:00
7:55 PM,54.0,48.4,81,30.01,10.0,Calm,Calm,-,N/A,,Mostly Cloudy,0,2013-12-04 00:55:00
8:15 PM,54.5,48.9,81,30.01,10.0,Calm,Calm,-,N/A,,Overcast,0,2013-12-04 01:15:00
8:35 PM,54.7,48.7,80,30.02,10.0,Calm,Calm,-,N/A,,Overcast,0,2013-12-04 01:35:00
8:55 PM,54.7,49.5,83,30.02,10.0,Calm,Calm,-,N/A,,Overcast,0,2013-12-04 01:55:00
9:15 PM,54.7,49.8,84,30.02,10.0,Calm,Calm,-,N/A,,Overcast,0,2013-12-04 02:15:00
9:35 PM,55.2,49.6,81,30.03,10.0,Calm,Calm,-,N/A,,Overcast,0,2013-12-04 02:35:00
9:55 PM,54.9,50.0,84,30.02,10.0,Calm,Calm,-,N/A,,Overcast,0,2013-12-04 02:55:00
10:15 PM,57.2,50.0,77,30.01,10.0,SE,3.5,-,N/A,,Overcast,130,2013-12-04 03:15:00
10:35 PM,58.1,50.4,75,30.03,10.0,Calm,Calm,-,N/A,,Overcast,0,2013-12-04 03:35:00
10:55 PM,57.6,50.9,78,30.02,10.0,Calm,Calm,-,N/A,,Mostly Cloudy,0,2013-12-04 03:55:00
11:15 PM,59.2,51.8,77,30.02,10.0,Calm,Calm,-,N/A,,Mostly Cloudy,0,2013-12-04 04:15:00
11:35 PM,59.0,52.3,79,30.02,10.0,Calm,Calm,-,N/A,,Mostly Cloudy,0,2013-12-04 04:35:00
11:55 PM,59.7,52.9,78,30.01,10.0,Calm,Calm,-,N/A,,Scattered Clouds,0,2013-12-04 04:55:00